Time,TemperatureF,DewpointF,PressureIn,WindDirection,WindDirectionDegrees,WindSpeedMPH,WindSpeedGustMPH,Humidity,HourlyPrecipIn,Conditions,Clouds,dailyrainin,SoftwareType,DateUTC
2013-05-16 00:00:00,65.9,47.3,29.81,NNW,331,5.0,5.0,51,0.00,,,0.00,Wunderground v.1.15,2013-05-16 05:00:00,
2013-05-16 00:02:00,66.0,47.3,29.81,NNW,337,5.0,6.0,51,0.00,,,0.00,Wunderground v.1.15,2013-05-16 05:02:00,
2013-05-16 00:06:00,66.2,47.5,29.81,North,360,5.0,7.0,51,0.00,,,0.00,Wunderground v.1.15,2013-05-16 05:06:00,
2013-05-16 00:08:00,66.2,47.5,29.81,North,358,5.0,7.0,51,0.00,,,0.00,Wunderground v.1.15,2013-05-16 05:08:00,
2013-05-16 00:10:00,66.0,47.3,29.81,NNW,345,5.0,5.0,51,0.00,,,0.00,Wunderground v.1.15,2013-05-16 05:10:00,
2013-05-16 00:16:00,65.7,47.1,29.81,NNW,346,5.0,7.0,51,0.00,,,0.00,Wunderground v.1.15,2013-05-16 05:16:00,
2013-05-16 00:18:00,65.7,47.1,29.81,NNW,339,5.0,7.0,51,0.00,,,0.00,Wunderground v.1.15,2013-05-16 05:18:00,
2013-05-16 00:20:00,65.8,47.2,29.81,NNW,348,5.0,5.0,51,0.00,,,0.00,Wunderground v.1.15,2013-05-16 05:20:00,
2013-05-16 00:22:00,65.9,47.3,29.81,North,354,5.0,6.0,51,0.00,,,0.00,Wunderground v.1.15,2013-05-16 05:22:00,
2013-05-16 00:26:00,65.9,47.3,29.81,North,354,5.0,7.0,51,0.00,,,0.00,Wunderground v.1.15,2013-05-16 05:26:00,
2013-05-16 00:28:00,65.8,47.2,29.81,North,354,5.0,7.0,51,0.00,,,0.00,Wunderground v.1.15,2013-05-16 05:28:00,
2013-05-16 00:32:00,65.5,47.4,29.81,North,356,5.0,7.0,52,0.00,,,0.00,Wunderground v.1.15,2013-05-16 05:32:00,
2013-05-16 00:36:00,64.9,47.4,29.81,North,355,4.0,7.0,53,0.00,,,0.00,Wunderground v.1.15,2013-05-16 05:36:00,
2013-05-16 00:38:00,64.6,47.1,29.82,North,354,4.0,7.0,53,0.00,,,0.00,Wunderground v.1.15,2013-05-16 05:38:00,
2013-05-16 00:40:00,64.5,47.0,29.82,North,350,4.0,7.0,53,0.00,,,0.00,Wunderground v.1.15,2013-05-16 05:40:00,
2013-05-16 00:44:00,64.3,47.3,29.82,North,357,3.0,7.0,54,0.00,,,0.00,Wunderground v.1.15,2013-05-16 05:44:00,
2013-05-16 00:50:00,64.0,47.0,29.82,North,356,4.0,7.0,54,0.00,,,0.00,Wunderground v.1.15,2013-05-16 05:50:00,
2013-05-16 00:56:00,63.8,46.8,29.82,North,354,4.0,7.0,54,0.00,,,0.00,Wunderground v.1.15,2013-05-16 05:56:00,
2013-05-16 01:00:00,63.9,46.9,29.82,North,351,4.0,7.0,54,0.00,,,0.00,Wunderground v.1.15,2013-05-16 06:00:00,
2013-05-16 01:06:00,63.8,46.8,29.82,North,350,5.0,7.0,54,0.00,,,0.00,Wunderground v.1.15,2013-05-16 06:06:00,
2013-05-16 01:08:00,63.9,46.9,29.82,North,352,5.0,7.0,54,0.00,,,0.00,Wunderground v.1.15,2013-05-16 06:08:00,
2013-05-16 01:10:00,64.0,47.0,29.82,NNW,330,5.0,7.0,54,0.00,,,0.00,Wunderground v.1.15,2013-05-16 06:10:00,
2013-05-16 01:12:00,64.1,47.1,29.82,North,351,5.0,7.0,54,0.00,,,0.00,Wunderground v.1.15,2013-05-16 06:12:00,
2013-05-16 01:16:00,64.2,47.2,29.82,NNW,340,5.0,7.0,54,0.00,,,0.00,Wunderground v.1.15,2013-05-16 06:16:00,
2013-05-16 01:18:00,64.3,47.3,29.81,NNW,333,5.0,7.0,54,0.00,,,0.00,Wunderground v.1.15,2013-05-16 06:18:00,
2013-05-16 01:20:00,64.3,46.8,29.81,NNW,343,5.0,7.0,53,0.00,,,0.00,Wunderground v.1.15,2013-05-16 06:20:00,
2013-05-16 01:24:00,64.4,46.9,29.81,NNW,348,5.0,7.0,53,0.00,,,0.00,Wunderground v.1.15,2013-05-16 06:24:00,
2013-05-16 01:26:00,64.4,46.9,29.82,North,350,5.0,7.0,53,0.00,,,0.00,Wunderground v.1.15,2013-05-16 06:26:00,
2013-05-16 01:28:00,64.3,46.8,29.81,NNW,340,5.0,7.0,53,0.00,,,0.00,Wunderground v.1.15,2013-05-16 06:28:00,
2013-05-16 01:32:00,64.4,46.9,29.82,NNW,343,5.0,7.0,53,0.00,,,0.00,Wunderground v.1.15,2013-05-16 06:32:00,
2013-05-16 01:34:00,64.4,46.9,29.82,North,350,5.0,7.0,53,0.00,,,0.00,Wunderground v.1.15,2013-05-16 06:34:00,
2013-05-16 01:36:00,64.4,46.9,29.82,NNW,348,5.0,7.0,53,0.00,,,0.00,Wunderground v.1.15,2013-05-16 06:36:00,
2013-05-16 01:38:00,64.2,46.7,29.82,NNW,348,4.0,7.0,53,0.00,,,0.00,Wunderground v.1.15,2013-05-16 06:38:00,
2013-05-16 01:40:00,64.1,46.6,29.82,North,354,5.0,5.0,53,0.00,,,0.00,Wunderground v.1.15,2013-05-16 06:40:00,
2013-05-16 01:42:00,63.8,46.8,29.82,North,352,5.0,7.0,54,0.00,,,0.00,Wunderground v.1.15,2013-05-16 06:42:00,
2013-05-16 01:44:00,63.6,46.6,29.82,NNW,348,5.0,7.0,54,0.00,,,0.00,Wunderground v.1.15,2013-05-16 06:44:00,
2013-05-16 01:46:00,63.6,46.6,29.82,North,353,5.0,7.0,54,0.00,,,0.00,Wunderground v.1.15,2013-05-16 06:46:00,
2013-05-16 01:50:00,63.9,46.9,29.82,NNW,336,4.0,4.0,54,0.00,,,0.00,Wunderground v.1.15,2013-05-16 06:50:00,
2013-05-16 01:52:00,63.9,46.9,29.82,NNW,335,4.0,5.0,54,0.00,,,0.00,Wunderground v.1.15,2013-05-16 06:52:00,
2013-05-16 01:54:00,64.1,46.6,29.83,North,350,4.0,7.0,53,0.00,,,0.00,Wunderground v.1.15,2013-05-16 06:54:00,
2013-05-16 01:56:00,64.1,47.1,29.83,North,355,4.0,7.0,54,0.00,,,0.00,Wunderground v.1.15,2013-05-16 06:56:00,
2013-05-16 01:58:00,64.0,47.0,29.83,North,350,4.0,7.0,54,0.00,,,0.00,Wunderground v.1.15,2013-05-16 06:58:00,
2013-05-16 02:02:00,63.5,46.6,29.82,North,1,4.0,7.0,54,0.00,,,0.00,Wunderground v.1.15,2013-05-16 07:02:00,
2013-05-16 02:04:00,63.2,46.3,29.82,North,6,4.0,7.0,54,0.00,,,0.00,Wunderground v.1.15,2013-05-16 07:04:00,
2013-05-16 02:06:00,62.7,46.3,29.82,North,8,4.0,7.0,55,0.00,,,0.00,Wunderground v.1.15,2013-05-16 07:06:00,
2013-05-16 02:08:00,62.1,46.2,29.82,North,1,5.0,7.0,56,0.00,,,0.00,Wunderground v.1.15,2013-05-16 07:08:00,
2013-05-16 02:10:00,61.6,46.2,29.83,North,357,5.0,5.0,57,0.00,,,0.00,Wunderground v.1.15,2013-05-16 07:10:00,
2013-05-16 02:12:00,61.3,46.4,29.83,North,358,5.0,6.0,58,0.00,,,0.00,Wunderground v.1.15,2013-05-16 07:12:00,
2013-05-16 02:14:00,61.1,46.2,29.82,North,359,5.0,7.0,58,0.00,,,0.00,Wunderground v.1.15,2013-05-16 07:14:00,
2013-05-16 02:16:00,61.0,46.6,29.83,North,358,5.0,7.0,59,0.00,,,0.00,Wunderground v.1.15,2013-05-16 07:16:00,
2013-05-16 02:18:00,60.8,46.4,29.83,North,355,5.0,7.0,59,0.00,,,0.00,Wunderground v.1.15,2013-05-16 07:18:00,
2013-05-16 02:22:00,61.0,46.6,29.83,North,356,5.0,7.0,59,0.00,,,0.00,Wunderground v.1.15,2013-05-16 07:22:00,
2013-05-16 02:24:00,61.2,46.8,29.83,North,357,4.0,7.0,59,0.00,,,0.00,Wunderground v.1.15,2013-05-16 07:24:00,
2013-05-16 02:28:00,61.7,46.8,29.83,North,6,4.0,7.0,58,0.00,,,0.00,Wunderground v.1.15,2013-05-16 07:28:00,
2013-05-16 02:30:00,61.8,46.9,29.83,North,1,4.0,4.0,58,0.00,,,0.00,Wunderground v.1.15,2013-05-16 07:30:00,
2013-05-16 02:32:00,61.7,46.8,29.83,North,358,4.0,7.0,58,0.00,,,0.00,Wunderground v.1.15,2013-05-16 07:32:00,
2013-05-16 02:34:00,61.8,46.9,29.83,North,358,4.0,7.0,58,0.00,,,0.00,Wunderground v.1.15,2013-05-16 07:34:00,
2013-05-16 02:38:00,61.9,46.5,29.83,North,11,4.0,7.0,57,0.00,,,0.00,Wunderground v.1.15,2013-05-16 07:38:00,
2013-05-16 02:42:00,61.9,46.5,29.83,NNE,15,3.0,7.0,57,0.00,,,0.00,Wunderground v.1.15,2013-05-16 07:42:00,
2013-05-16 02:44:00,62.1,46.7,29.83,NNE,12,3.0,7.0,57,0.00,,,0.00,Wunderground v.1.15,2013-05-16 07:44:00,
2013-05-16 02:48:00,61.8,46.4,29.83,North,11,3.0,7.0,57,0.00,,,0.00,Wunderground v.1.15,2013-05-16 07:48:00,
2013-05-16 02:50:00,61.6,46.7,29.83,North,11,3.0,7.0,58,0.00,,,0.00,Wunderground v.1.15,2013-05-16 07:50:00,
2013-05-16 02:52:00,61.4,46.5,29.83,North,6,3.0,7.0,58,0.00,,,0.00,Wunderground v.1.15,2013-05-16 07:52:00,
2013-05-16 02:56:00,60.9,46.9,29.83,North,360,4.0,7.0,60,0.00,,,0.00,Wunderground v.1.15,2013-05-16 07:56:00,
2013-05-16 02:58:00,60.7,46.7,29.83,North,4,4.0,7.0,60,0.00,,,0.00,Wunderground v.1.15,2013-05-16 07:58:00,
2013-05-16 03:02:00,60.4,47.3,29.82,North,358,4.0,7.0,62,0.00,,,0.00,Wunderground v.1.15,2013-05-16 08:02:00,
2013-05-16 03:04:00,60.3,47.2,29.83,North,357,4.0,7.0,62,0.00,,,0.00,Wunderground v.1.15,2013-05-16 08:04:00,
2013-05-16 03:06:00,60.1,47.5,29.83,North,1,4.0,7.0,63,0.00,,,0.00,Wunderground v.1.15,2013-05-16 08:06:00,
2013-05-16 03:10:00,59.9,47.7,29.83,North,352,5.0,5.0,64,0.00,,,0.00,Wunderground v.1.15,2013-05-16 08:10:00,
2013-05-16 03:12:00,59.9,47.7,29.83,North,356,5.0,7.0,64,0.00,,,0.00,Wunderground v.1.15,2013-05-16 08:12:00,
2013-05-16 03:18:00,60.0,47.8,29.83,North,357,5.0,7.0,64,0.00,,,0.00,Wunderground v.1.15,2013-05-16 08:18:00,
2013-05-16 03:20:00,60.0,47.8,29.82,North,359,4.0,4.0,64,0.00,,,0.00,Wunderground v.1.15,2013-05-16 08:20:00,
2013-05-16 03:26:00,59.9,47.7,29.82,North,6,3.0,7.0,64,0.00,,,0.00,Wunderground v.1.15,2013-05-16 08:26:00,
2013-05-16 03:28:00,60.0,47.4,29.83,North,8,3.0,7.0,63,0.00,,,0.00,Wunderground v.1.15,2013-05-16 08:28:00,
2013-05-16 03:30:00,60.2,47.6,29.83,North,4,3.0,3.0,63,0.00,,,0.00,Wunderground v.1.15,2013-05-16 08:30:00,
2013-05-16 03:32:00,60.3,47.2,29.83,North,358,3.0,7.0,62,0.00,,,0.00,Wunderground v.1.15,2013-05-16 08:32:00,
2013-05-16 03:36:00,60.8,47.3,29.83,North,357,3.0,7.0,61,0.00,,,0.00,Wunderground v.1.15,2013-05-16 08:36:00,
2013-05-16 03:38:00,61.1,47.1,29.83,North,357,2.0,7.0,60,0.00,,,0.00,Wunderground v.1.15,2013-05-16 08:38:00,
2013-05-16 03:42:00,61.4,47.4,29.83,North,357,2.0,7.0,60,0.00,,,0.00,Wunderground v.1.15,2013-05-16 08:42:00,
2013-05-16 03:46:00,61.6,47.1,29.83,NNE,16,2.0,7.0,59,0.00,,,0.00,Wunderground v.1.15,2013-05-16 08:46:00,
2013-05-16 03:48:00,61.7,47.2,29.82,NNE,33,3.0,7.0,59,0.00,,,0.00,Wunderground v.1.15,2013-05-16 08:48:00,
2013-05-16 03:52:00,61.7,46.8,29.82,NE,44,3.0,7.0,58,0.00,,,0.00,Wunderground v.1.15,2013-05-16 08:52:00,
2013-05-16 03:54:00,61.0,46.6,29.82,NNE,12,4.0,7.0,59,0.00,,,0.00,Wunderground v.1.15,2013-05-16 08:54:00,
2013-05-16 04:04:00,60.2,46.3,29.83,NNE,13,5.0,7.0,60,0.00,,,0.00,Wunderground v.1.15,2013-05-16 09:04:00,
2013-05-16 04:06:00,60.1,46.2,29.83,NNE,18,5.0,7.0,60,0.00,,,0.00,Wunderground v.1.15,2013-05-16 09:06:00,
2013-05-16 04:08:00,59.7,45.8,29.83,NNE,16,6.0,7.0,60,0.00,,,0.00,Wunderground v.1.15,2013-05-16 09:08:00,
2013-05-16 04:12:00,59.5,46.0,29.83,NNE,23,6.0,7.0,61,0.00,,,0.00,Wunderground v.1.15,2013-05-16 09:12:00,
2013-05-16 04:14:00,59.5,46.0,29.83,ENE,61,5.0,5.0,61,0.00,,,0.00,Wunderground v.1.15,2013-05-16 09:14:00,
2013-05-16 04:16:00,59.5,45.6,29.83,NE,48,4.0,7.0,60,0.00,,,0.00,Wunderground v.1.15,2013-05-16 09:16:00,
2013-05-16 04:18:00,59.4,45.5,29.83,ENE,71,4.0,7.0,60,0.00,,,0.00,Wunderground v.1.15,2013-05-16 09:18:00,
2013-05-16 04:20:00,59.4,45.5,29.83,ESE,103,3.0,7.0,60,0.00,,,0.00,Wunderground v.1.15,2013-05-16 09:20:00,
2013-05-16 04:22:00,59.2,45.8,29.84,SE,131,2.0,7.0,61,0.00,,,0.00,Wunderground v.1.15,2013-05-16 09:22:00,
2013-05-16 04:24:00,58.8,45.4,29.84,SE,145,2.0,7.0,61,0.00,,,0.00,Wunderground v.1.15,2013-05-16 09:24:00,
2013-05-16 04:28:00,57.9,45.4,29.84,SW,224,2.0,7.0,63,0.00,,,0.00,Wunderground v.1.15,2013-05-16 09:28:00,
2013-05-16 04:30:00,57.4,45.3,29.84,South,180,3.0,7.0,64,0.00,,,0.00,Wunderground v.1.15,2013-05-16 09:30:00,
2013-05-16 04:34:00,57.0,46.1,29.85,SSW,197,4.0,7.0,67,0.00,,,0.00,Wunderground v.1.15,2013-05-16 09:34:00,
2013-05-16 04:36:00,57.0,46.5,29.85,South,177,4.0,7.0,68,0.00,,,0.00,Wunderground v.1.15,2013-05-16 09:36:00,
2013-05-16 04:38:00,57.2,46.3,29.85,SSE,163,4.0,7.0,67,0.00,,,0.00,Wunderground v.1.15,2013-05-16 09:38:00,
2013-05-16 04:40:00,57.5,46.6,29.85,SSE,158,4.0,7.0,67,0.00,,,0.00,Wunderground v.1.15,2013-05-16 09:40:00,
2013-05-16 04:42:00,57.6,46.7,29.85,WSW,250,2.0,7.0,67,0.00,,,0.00,Wunderground v.1.15,2013-05-16 09:42:00,
2013-05-16 04:44:00,57.6,46.3,29.85,SE,141,2.0,2.0,66,0.00,,,0.00,Wunderground v.1.15,2013-05-16 09:44:00,
2013-05-16 04:46:00,57.8,46.5,29.85,SE,137,1.0,7.0,66,0.00,,,0.00,Wunderground v.1.15,2013-05-16 09:46:00,
2013-05-16 04:50:00,57.9,46.2,29.85,SE,131,1.0,7.0,65,0.00,,,0.00,Wunderground v.1.15,2013-05-16 09:50:00,
2013-05-16 04:54:00,58.0,46.3,29.85,SE,131,1.0,7.0,65,0.00,,,0.00,Wunderground v.1.15,2013-05-16 09:54:00,
2013-05-16 04:58:00,57.6,46.3,29.85,SSW,199,1.0,7.0,66,0.00,,,0.00,Wunderground v.1.15,2013-05-16 09:58:00,
2013-05-16 05:00:00,57.5,46.2,29.85,SE,136,1.0,7.0,66,0.00,,,0.00,Wunderground v.1.15,2013-05-16 10:00:00,
2013-05-16 05:02:00,57.2,46.3,29.85,SE,138,1.0,7.0,67,0.00,,,0.00,Wunderground v.1.15,2013-05-16 10:02:00,
2013-05-16 05:06:00,57.0,46.5,29.86,SE,138,0.0,7.0,68,0.00,,,0.00,Wunderground v.1.15,2013-05-16 10:06:00,
2013-05-16 05:08:00,57.0,46.5,29.86,SE,132,0.0,7.0,68,0.00,,,0.00,Wunderground v.1.15,2013-05-16 10:08:00,
2013-05-16 05:12:00,57.0,46.9,29.86,SE,127,1.0,7.0,69,0.00,,,0.00,Wunderground v.1.15,2013-05-16 10:12:00,
2013-05-16 05:14:00,57.0,46.5,29.86,SE,128,1.0,7.0,68,0.00,,,0.00,Wunderground v.1.15,2013-05-16 10:14:00,
2013-05-16 05:16:00,57.0,46.9,29.86,SE,131,1.0,7.0,69,0.00,,,0.00,Wunderground v.1.15,2013-05-16 10:16:00,
2013-05-16 05:18:00,57.0,46.5,29.86,ESE,117,2.0,7.0,68,0.00,,,0.00,Wunderground v.1.15,2013-05-16 10:18:00,
2013-05-16 05:20:00,57.0,46.5,29.86,ESE,117,2.0,2.0,68,0.00,,,0.00,Wunderground v.1.15,2013-05-16 10:20:00,
2013-05-16 05:22:00,56.9,46.4,29.86,ESE,117,1.0,7.0,68,0.00,,,0.00,Wunderground v.1.15,2013-05-16 10:22:00,
2013-05-16 05:24:00,56.8,46.3,29.86,ESE,117,1.0,7.0,68,0.00,,,0.00,Wunderground v.1.15,2013-05-16 10:24:00,
2013-05-16 05:30:00,56.9,46.8,29.86,SE,141,0.0,7.0,69,0.00,,,0.00,Wunderground v.1.15,2013-05-16 10:30:00,
2013-05-16 05:32:00,57.0,46.9,29.86,SSE,153,0.0,7.0,69,0.00,,,0.00,Wunderground v.1.15,2013-05-16 10:32:00,
2013-05-16 05:36:00,57.3,46.8,29.86,SSE,153,0.0,7.0,68,0.00,,,0.00,Wunderground v.1.15,2013-05-16 10:36:00,
2013-05-16 05:38:00,57.4,46.9,29.86,SSE,153,0.0,7.0,68,0.00,,,0.00,Wunderground v.1.15,2013-05-16 10:38:00,
2013-05-16 05:40:00,57.5,47.0,29.86,SSE,152,0.0,7.0,68,0.00,,,0.00,Wunderground v.1.15,2013-05-16 10:40:00,
2013-05-16 05:42:00,57.5,47.0,29.86,SSE,153,0.0,7.0,68,0.00,,,0.00,Wunderground v.1.15,2013-05-16 10:42:00,
2013-05-16 05:44:00,57.6,47.1,29.86,SSE,153,0.0,7.0,68,0.00,,,0.00,Wunderground v.1.15,2013-05-16 10:44:00,
2013-05-16 05:48:00,58.2,46.5,29.86,SSE,153,0.0,7.0,65,0.00,,,0.00,Wunderground v.1.15,2013-05-16 10:48:00,
2013-05-16 05:50:00,58.6,46.9,29.86,North,354,1.0,7.0,65,0.00,,,0.00,Wunderground v.1.15,2013-05-16 10:50:00,
2013-05-16 05:52:00,58.8,46.6,29.86,North,354,1.0,7.0,64,0.00,,,0.00,Wunderground v.1.15,2013-05-16 10:52:00,
2013-05-16 05:56:00,58.3,46.6,29.86,North,359,2.0,7.0,65,0.00,,,0.00,Wunderground v.1.15,2013-05-16 10:56:00,
2013-05-16 05:58:00,57.4,45.7,29.86,North,1,2.0,7.0,65,0.00,,,0.00,Wunderground v.1.15,2013-05-16 10:58:00,
2013-05-16 06:02:00,56.0,45.6,29.85,North,5,4.0,7.0,68,0.00,,,0.00,Wunderground v.1.15,2013-05-16 11:02:00,
2013-05-16 06:04:00,55.8,45.4,29.86,North,1,5.0,7.0,68,0.00,,,0.00,Wunderground v.1.15,2013-05-16 11:04:00,
2013-05-16 06:06:00,55.8,45.8,29.86,North,1,5.0,7.0,69,0.00,,,0.00,Wunderground v.1.15,2013-05-16 11:06:00,
2013-05-16 06:10:00,56.1,46.1,29.86,North,350,5.0,5.0,69,0.00,,,0.00,Wunderground v.1.15,2013-05-16 11:10:00,
2013-05-16 06:12:00,56.3,46.3,29.86,North,353,5.0,7.0,69,0.00,,,0.00,Wunderground v.1.15,2013-05-16 11:12:00,
2013-05-16 06:16:00,57.4,46.9,29.86,North,6,4.0,7.0,68,0.00,,,0.00,Wunderground v.1.15,2013-05-16 11:16:00,
2013-05-16 06:18:00,57.8,46.9,29.86,North,357,4.0,7.0,67,0.00,,,0.00,Wunderground v.1.15,2013-05-16 11:18:00,
2013-05-16 06:20:00,57.9,47.0,29.86,North,354,4.0,7.0,67,0.00,,,0.00,Wunderground v.1.15,2013-05-16 11:20:00,
2013-05-16 06:22:00,57.8,46.9,29.86,North,5,5.0,7.0,67,0.00,,,0.00,Wunderground v.1.15,2013-05-16 11:22:00,
2013-05-16 06:26:00,57.2,46.7,29.86,North,11,5.0,7.0,68,0.00,,,0.00,Wunderground v.1.15,2013-05-16 11:26:00,
2013-05-16 06:30:00,57.2,46.7,29.87,North,5,4.0,4.0,68,0.00,,,0.00,Wunderground v.1.15,2013-05-16 11:30:00,
2013-05-16 06:32:00,57.4,47.3,29.87,North,5,3.0,7.0,69,0.00,,,0.00,Wunderground v.1.15,2013-05-16 11:32:00,
2013-05-16 06:34:00,57.7,47.6,29.87,SW,218,2.0,7.0,69,0.00,,,0.00,Wunderground v.1.15,2013-05-16 11:34:00,
2013-05-16 06:36:00,58.0,48.3,29.87,SSW,198,2.0,7.0,70,0.00,,,0.00,Wunderground v.1.15,2013-05-16 11:36:00,
2013-05-16 06:40:00,58.8,47.9,29.88,South,179,1.0,7.0,67,0.00,,,0.00,Wunderground v.1.15,2013-05-16 11:40:00,
2013-05-16 06:42:00,59.3,48.3,29.88,South,177,1.0,7.0,67,0.00,,,0.00,Wunderground v.1.15,2013-05-16 11:42:00,
2013-05-16 06:44:00,60.1,48.7,29.88,South,177,1.0,7.0,66,0.00,,,0.00,Wunderground v.1.15,2013-05-16 11:44:00,
2013-05-16 06:46:00,60.7,48.4,29.88,South,177,1.0,7.0,64,0.00,,,0.00,Wunderground v.1.15,2013-05-16 11:46:00,
2013-05-16 06:50:00,61.7,49.4,29.88,South,177,0.0,7.0,64,0.00,,,0.00,Wunderground v.1.15,2013-05-16 11:50:00,
2013-05-16 06:54:00,62.0,48.8,29.88,SSW,208,0.0,7.0,62,0.00,,,0.00,Wunderground v.1.15,2013-05-16 11:54:00,
2013-05-16 06:56:00,61.8,48.2,29.88,South,191,1.0,7.0,61,0.00,,,0.00,Wunderground v.1.15,2013-05-16 11:56:00,
2013-05-16 06:58:00,61.7,48.5,29.89,SW,221,2.0,7.0,62,0.00,,,0.00,Wunderground v.1.15,2013-05-16 11:58:00,
2013-05-16 07:00:00,61.6,48.0,29.89,WSW,246,2.0,7.0,61,0.00,,,0.00,Wunderground v.1.15,2013-05-16 12:00:00,
2013-05-16 07:02:00,61.6,48.4,29.89,SW,219,2.0,7.0,62,0.00,,,0.00,Wunderground v.1.15,2013-05-16 12:02:00,
2013-05-16 07:04:00,61.8,48.6,29.89,WSW,250,2.0,7.0,62,0.00,,,0.00,Wunderground v.1.15,2013-05-16 12:04:00,
2013-05-16 07:10:00,62.4,49.2,29.88,NW,314,1.0,7.0,62,0.00,,,0.00,Wunderground v.1.15,2013-05-16 12:10:00,
2013-05-16 07:14:00,63.0,50.6,29.89,NW,316,1.0,7.0,64,0.00,,,0.00,Wunderground v.1.15,2013-05-16 12:14:00,
2013-05-16 07:16:00,63.3,49.6,29.89,NW,325,1.0,7.0,61,0.00,,,0.00,Wunderground v.1.15,2013-05-16 12:16:00,
2013-05-16 07:18:00,63.6,49.5,29.89,NNW,338,2.0,7.0,60,0.00,,,0.00,Wunderground v.1.15,2013-05-16 12:18:00,
2013-05-16 07:22:00,63.9,49.7,29.89,NW,320,2.0,7.0,60,0.00,,,0.00,Wunderground v.1.15,2013-05-16 12:22:00,
2013-05-16 07:24:00,64.0,48.9,29.89,NW,311,3.0,7.0,58,0.00,,,0.00,Wunderground v.1.15,2013-05-16 12:24:00,
2013-05-16 07:26:00,64.1,49.9,29.89,WNW,298,3.0,7.0,60,0.00,,,0.00,Wunderground v.1.15,2013-05-16 12:26:00,
2013-05-16 07:28:00,64.4,50.2,29.89,WNW,295,2.0,7.0,60,0.00,,,0.00,Wunderground v.1.15,2013-05-16 12:28:00,
2013-05-16 07:32:00,64.8,49.2,29.89,NW,304,2.0,7.0,57,0.00,,,0.00,Wunderground v.1.15,2013-05-16 12:32:00,
2013-05-16 07:34:00,65.0,49.9,29.89,NW,304,1.0,7.0,58,0.00,,,0.00,Wunderground v.1.15,2013-05-16 12:34:00,
2013-05-16 07:36:00,65.1,50.0,29.89,NW,304,1.0,7.0,58,0.00,,,0.00,Wunderground v.1.15,2013-05-16 12:36:00,
2013-05-16 07:38:00,65.3,50.1,29.90,NW,304,1.0,7.0,58,0.00,,,0.00,Wunderground v.1.15,2013-05-16 12:38:00,
2013-05-16 07:42:00,65.5,49.4,29.90,SW,226,1.0,7.0,56,0.00,,,0.00,Wunderground v.1.15,2013-05-16 12:42:00,
2013-05-16 07:44:00,65.6,49.0,29.90,SW,226,1.0,7.0,55,0.00,,,0.00,Wunderground v.1.15,2013-05-16 12:44:00,
2013-05-16 07:50:00,66.2,49.1,29.90,SW,226,2.0,2.0,54,0.00,,,0.00,Wunderground v.1.15,2013-05-16 12:50:00,
2013-05-16 07:52:00,66.6,49.4,29.90,West,274,2.0,7.0,54,0.00,,,0.00,Wunderground v.1.15,2013-05-16 12:52:00,
2013-05-16 07:54:00,66.7,48.5,29.90,SW,229,1.0,7.0,52,0.00,,,0.00,Wunderground v.1.15,2013-05-16 12:54:00,
2013-05-16 07:56:00,66.8,49.1,29.90,WSW,249,2.0,7.0,53,0.00,,,0.00,Wunderground v.1.15,2013-05-16 12:56:00,
2013-05-16 07:58:00,66.9,49.2,29.90,West,264,1.0,7.0,53,0.00,,,0.00,Wunderground v.1.15,2013-05-16 12:58:00,
2013-05-16 08:02:00,67.3,49.1,29.91,WSW,252,2.0,7.0,52,0.00,,,0.00,Wunderground v.1.15,2013-05-16 13:02:00,
2013-05-16 08:04:00,67.6,49.9,29.91,SW,218,2.0,7.0,53,0.00,,,0.00,Wunderground v.1.15,2013-05-16 13:04:00,
2013-05-16 08:06:00,67.9,48.6,29.91,WSW,240,1.0,7.0,50,0.00,,,0.00,Wunderground v.1.15,2013-05-16 13:06:00,
2013-05-16 08:12:00,68.7,48.8,29.91,South,188,1.0,7.0,49,0.00,,,0.00,Wunderground v.1.15,2013-05-16 13:12:00,
2013-05-16 08:16:00,69.0,49.0,29.91,SW,224,1.0,7.0,49,0.00,,,0.00,Wunderground v.1.15,2013-05-16 13:16:00,
2013-05-16 08:18:00,68.9,49.5,29.91,SSW,203,1.0,7.0,50,0.00,,,0.00,Wunderground v.1.15,2013-05-16 13:18:00,
2013-05-16 08:20:00,68.8,48.9,29.91,SW,233,1.0,7.0,49,0.00,,,0.00,Wunderground v.1.15,2013-05-16 13:20:00,
2013-05-16 08:24:00,68.6,48.7,29.91,West,264,1.0,7.0,49,0.00,,,0.00,Wunderground v.1.15,2013-05-16 13:24:00,
2013-05-16 08:30:00,68.5,49.7,29.91,West,269,1.0,1.0,51,0.00,,,0.00,Wunderground v.1.15,2013-05-16 13:30:00,
2013-05-16 08:32:00,68.7,49.3,29.91,West,269,1.0,7.0,50,0.00,,,0.00,Wunderground v.1.15,2013-05-16 13:32:00,
2013-05-16 08:36:00,69.2,49.2,29.91,West,269,0.0,7.0,49,0.00,,,0.00,Wunderground v.1.15,2013-05-16 13:36:00,
2013-05-16 08:40:00,69.7,49.1,29.91,West,269,0.0,7.0,48,0.00,,,0.00,Wunderground v.1.15,2013-05-16 13:40:00,
2013-05-16 08:42:00,69.8,48.7,29.91,SW,221,0.0,7.0,47,0.00,,,0.00,Wunderground v.1.15,2013-05-16 13:42:00,
2013-05-16 08:46:00,70.4,49.2,29.91,WSW,245,0.0,7.0,47,0.00,,,0.00,Wunderground v.1.15,2013-05-16 13:46:00,
2013-05-16 08:52:00,72.1,51.9,29.91,NNW,332,1.0,7.0,49,0.00,,,0.00,Wunderground v.1.15,2013-05-16 13:52:00,
2013-05-16 08:54:00,72.4,48.6,29.91,NNE,23,1.0,7.0,43,0.00,,,0.00,Wunderground v.1.15,2013-05-16 13:54:00,
2013-05-16 08:56:00,72.5,50.5,29.91,NNE,23,1.0,7.0,46,0.00,,,0.00,Wunderground v.1.15,2013-05-16 13:56:00,
2013-05-16 09:00:00,72.5,48.1,29.91,ENE,68,1.0,7.0,42,0.00,,,0.00,Wunderground v.1.15,2013-05-16 14:00:00,
2013-05-16 09:02:00,72.4,49.9,29.91,NE,41,2.0,7.0,45,0.00,,,0.00,Wunderground v.1.15,2013-05-16 14:02:00,
2013-05-16 09:06:00,72.3,48.5,29.91,NNE,15,2.0,7.0,43,0.00,,,0.00,Wunderground v.1.15,2013-05-16 14:06:00,
2013-05-16 09:08:00,72.2,47.8,29.91,NE,53,4.0,7.0,42,0.00,,,0.00,Wunderground v.1.15,2013-05-16 14:08:00,
2013-05-16 09:10:00,72.1,47.7,29.91,NNE,26,4.0,9.0,42,0.00,,,0.00,Wunderground v.1.15,2013-05-16 14:10:00,
2013-05-16 09:12:00,72.1,47.7,29.91,NNE,13,5.0,9.0,42,0.00,,,0.00,Wunderground v.1.15,2013-05-16 14:12:00,
2013-05-16 09:14:00,72.3,47.9,29.91,ENE,59,6.0,9.0,42,0.00,,,0.00,Wunderground v.1.15,2013-05-16 14:14:00,
2013-05-16 09:16:00,72.5,48.1,29.91,NNE,29,7.0,9.0,42,0.00,,,0.00,Wunderground v.1.15,2013-05-16 14:16:00,
2013-05-16 09:18:00,72.7,47.6,29.91,ENE,58,7.0,9.0,41,0.00,,,0.00,Wunderground v.1.15,2013-05-16 14:18:00,
2013-05-16 09:20:00,72.8,47.7,29.91,ENE,70,7.0,10.0,41,0.00,,,0.00,Wunderground v.1.15,2013-05-16 14:20:00,
2013-05-16 09:24:00,73.2,47.4,29.91,NNE,27,7.0,10.0,40,0.00,,,0.00,Wunderground v.1.15,2013-05-16 14:24:00,
2013-05-16 09:26:00,73.3,48.8,29.91,NNE,25,7.0,10.0,42,0.00,,,0.00,Wunderground v.1.15,2013-05-16 14:26:00,
2013-05-16 09:30:00,74.0,48.1,29.91,NE,44,8.0,8.0,40,0.00,,,0.00,Wunderground v.1.15,2013-05-16 14:30:00,
2013-05-16 09:36:00,74.6,49.3,29.91,ENE,65,8.0,10.0,41,0.00,,,0.00,Wunderground v.1.15,2013-05-16 14:36:00,
2013-05-16 09:38:00,74.8,48.2,29.91,NE,46,8.0,10.0,39,0.00,,,0.00,Wunderground v.1.15,2013-05-16 14:38:00,
2013-05-16 09:42:00,74.8,49.5,29.91,ENE,65,8.0,9.0,41,0.00,,,0.00,Wunderground v.1.15,2013-05-16 14:42:00,
2013-05-16 09:44:00,74.9,48.3,29.91,ENE,57,8.0,9.0,39,0.00,,,0.00,Wunderground v.1.15,2013-05-16 14:44:00,
2013-05-16 09:46:00,75.1,47.8,29.90,ENE,70,8.0,9.0,38,0.00,,,0.00,Wunderground v.1.15,2013-05-16 14:46:00,
2013-05-16 09:48:00,75.3,47.9,29.90,East,101,9.0,13.0,38,0.00,,,0.00,Wunderground v.1.15,2013-05-16 14:48:00,
2013-05-16 09:50:00,75.3,47.2,29.90,ENE,58,10.0,10.0,37,0.00,,,0.00,Wunderground v.1.15,2013-05-16 14:50:00,
2013-05-16 09:52:00,75.3,47.2,29.90,ENE,58,10.0,12.0,37,0.00,,,0.00,Wunderground v.1.15,2013-05-16 14:52:00,
2013-05-16 09:54:00,75.2,47.8,29.90,NE,39,11.0,12.0,38,0.00,,,0.00,Wunderground v.1.15,2013-05-16 14:54:00,
2013-05-16 09:56:00,75.4,47.3,29.90,NNE,30,11.0,12.0,37,0.00,,,0.00,Wunderground v.1.15,2013-05-16 14:56:00,
2013-05-16 09:58:00,75.6,47.5,29.90,NNE,26,10.0,12.0,37,0.00,,,0.00,Wunderground v.1.15,2013-05-16 14:58:00,
2013-05-16 10:00:00,75.7,48.3,29.90,ENE,60,10.0,11.0,38,0.00,,,0.00,Wunderground v.1.15,2013-05-16 15:00:00,
2013-05-16 10:02:00,76.1,47.9,29.90,East,99,10.0,14.0,37,0.00,,,0.00,Wunderground v.1.15,2013-05-16 15:02:00,
2013-05-16 10:04:00,76.0,47.1,29.90,East,83,10.0,14.0,36,0.00,,,0.00,Wunderground v.1.15,2013-05-16 15:04:00,
2013-05-16 10:08:00,76.0,47.1,29.90,ENE,78,10.0,14.0,36,0.00,,,0.00,Wunderground v.1.15,2013-05-16 15:08:00,
2013-05-16 10:10:00,76.2,45.0,29.90,ENE,73,11.0,11.0,33,0.00,,,0.00,Wunderground v.1.15,2013-05-16 15:10:00,
2013-05-16 10:14:00,76.2,45.8,29.90,East,92,10.0,11.0,34,0.00,,,0.00,Wunderground v.1.15,2013-05-16 15:14:00,
2013-05-16 10:16:00,76.3,46.6,29.90,ENE,74,10.0,11.0,35,0.00,,,0.00,Wunderground v.1.15,2013-05-16 15:16:00,
2013-05-16 10:20:00,76.8,46.3,29.91,East,87,9.0,12.0,34,0.00,,,0.00,Wunderground v.1.15,2013-05-16 15:20:00,
2013-05-16 10:22:00,77.3,46.7,29.91,East,85,9.0,12.0,34,0.00,,,0.00,Wunderground v.1.15,2013-05-16 15:22:00,
2013-05-16 10:26:00,77.1,44.1,29.91,East,82,9.0,12.0,31,0.00,,,0.00,Wunderground v.1.15,2013-05-16 15:26:00,
2013-05-16 10:32:00,77.0,44.9,29.90,North,11,9.0,13.0,32,0.00,,,0.00,Wunderground v.1.15,2013-05-16 15:32:00,
2013-05-16 10:34:00,76.9,45.6,29.90,East,96,8.0,13.0,33,0.00,,,0.00,Wunderground v.1.15,2013-05-16 15:34:00,
2013-05-16 10:36:00,77.0,44.9,29.90,ESE,113,8.0,15.0,32,0.00,,,0.00,Wunderground v.1.15,2013-05-16 15:36:00,
2013-05-16 10:40:00,76.9,45.6,29.90,ESE,115,9.0,9.0,33,0.00,,,0.00,Wunderground v.1.15,2013-05-16 15:40:00,
2013-05-16 10:44:00,77.1,45.0,29.90,East,79,10.0,14.0,32,0.00,,,0.00,Wunderground v.1.15,2013-05-16 15:44:00,
2013-05-16 10:46:00,77.0,44.9,29.90,East,83,11.0,14.0,32,0.00,,,0.00,Wunderground v.1.15,2013-05-16 15:46:00,
2013-05-16 10:50:00,77.2,45.0,29.90,East,92,11.0,11.0,32,0.00,,,0.00,Wunderground v.1.15,2013-05-16 15:50:00,
2013-05-16 10:52:00,77.5,44.5,29.90,SE,124,10.0,11.0,31,0.00,,,0.00,Wunderground v.1.15,2013-05-16 15:52:00,
2013-05-16 10:58:00,77.5,46.9,29.90,ENE,68,9.0,11.0,34,0.00,,,0.00,Wunderground v.1.15,2013-05-16 15:58:00,
2013-05-16 11:00:00,77.5,46.9,29.90,ENE,68,9.0,9.0,34,0.00,,,0.00,Wunderground v.1.15,2013-05-16 16:00:00,
2013-05-16 11:04:00,77.9,46.5,29.90,ESE,121,9.0,12.0,33,0.00,,,0.00,Wunderground v.1.15,2013-05-16 16:04:00,
2013-05-16 11:06:00,78.0,46.6,29.90,East,83,9.0,12.0,33,0.00,,,0.00,Wunderground v.1.15,2013-05-16 16:06:00,
2013-05-16 11:12:00,78.8,46.4,29.89,ESE,120,9.0,10.0,32,0.00,,,0.00,Wunderground v.1.15,2013-05-16 16:12:00,
2013-05-16 11:14:00,79.0,44.9,29.89,ESE,108,9.0,11.0,30,0.00,,,0.00,Wunderground v.1.15,2013-05-16 16:14:00,
2013-05-16 11:16:00,78.6,44.6,29.89,ESE,121,9.0,11.0,30,0.00,,,0.00,Wunderground v.1.15,2013-05-16 16:16:00,
2013-05-16 11:20:00,78.5,45.3,29.89,ESE,110,10.0,12.0,31,0.00,,,0.00,Wunderground v.1.15,2013-05-16 16:20:00,
2013-05-16 11:26:00,78.5,46.2,29.89,East,84,8.0,12.0,32,0.00,,,0.00,Wunderground v.1.15,2013-05-16 16:26:00,
2013-05-16 11:28:00,78.8,46.4,29.89,SE,124,7.0,12.0,32,0.00,,,0.00,Wunderground v.1.15,2013-05-16 16:28:00,
2013-05-16 11:32:00,78.9,48.1,29.89,ESE,117,7.0,8.0,34,0.00,,,0.00,Wunderground v.1.15,2013-05-16 16:32:00,
2013-05-16 11:34:00,79.6,45.4,29.89,ENE,72,8.0,13.0,30,0.00,,,0.00,Wunderground v.1.15,2013-05-16 16:34:00,
2013-05-16 11:40:00,79.2,45.1,29.89,SE,128,9.0,12.0,30,0.00,,,0.00,Wunderground v.1.15,2013-05-16 16:40:00,
2013-05-16 11:42:00,79.3,45.2,29.89,ESE,110,11.0,14.0,30,0.00,,,0.00,Wunderground v.1.15,2013-05-16 16:42:00,
2013-05-16 11:44:00,79.4,46.1,29.88,SSE,153,11.0,14.0,31,0.00,,,0.00,Wunderground v.1.15,2013-05-16 16:44:00,
2013-05-16 11:46:00,79.6,45.4,29.89,ESE,109,11.0,14.0,30,0.00,,,0.00,Wunderground v.1.15,2013-05-16 16:46:00,
2013-05-16 11:50:00,79.4,46.1,29.89,ESE,114,11.0,11.0,31,0.00,,,0.00,Wunderground v.1.15,2013-05-16 16:50:00,
2013-05-16 11:52:00,79.6,48.0,29.88,SE,131,10.0,11.0,33,0.00,,,0.00,Wunderground v.1.15,2013-05-16 16:52:00,
2013-05-16 11:56:00,79.9,46.6,29.88,East,96,10.0,13.0,31,0.00,,,0.00,Wunderground v.1.15,2013-05-16 16:56:00,
2013-05-16 11:58:00,79.9,44.8,29.88,ESE,108,10.0,13.0,29,0.00,,,0.00,Wunderground v.1.15,2013-05-16 16:58:00,
2013-05-16 12:02:00,79.6,45.4,29.88,ESE,114,9.0,10.0,30,0.00,,,0.00,Wunderground v.1.15,2013-05-16 17:02:00,
2013-05-16 12:06:00,80.3,46.0,29.88,ESE,102,10.0,15.0,30,0.00,,,0.00,Wunderground v.1.15,2013-05-16 17:06:00,
2013-05-16 12:08:00,80.1,45.0,29.88,ESE,108,9.0,15.0,29,0.00,,,0.00,Wunderground v.1.15,2013-05-16 17:08:00,
2013-05-16 12:10:00,80.1,44.0,29.88,ESE,115,10.0,10.0,28,0.00,,,0.00,Wunderground v.1.15,2013-05-16 17:10:00,
2013-05-16 12:14:00,80.1,45.9,29.88,ESE,106,10.0,15.0,30,0.00,,,0.00,Wunderground v.1.15,2013-05-16 17:14:00,
2013-05-16 12:16:00,80.3,45.1,29.88,ESE,106,10.0,15.0,29,0.00,,,0.00,Wunderground v.1.15,2013-05-16 17:16:00,
2013-05-16 12:20:00,80.5,46.2,29.88,ESE,112,10.0,16.0,30,0.00,,,0.00,Wunderground v.1.15,2013-05-16 17:20:00,
2013-05-16 12:26:00,80.2,44.1,29.88,ESE,119,10.0,16.0,28,0.00,,,0.00,Wunderground v.1.15,2013-05-16 17:26:00,
2013-05-16 12:28:00,80.6,43.5,29.88,ESE,113,10.0,16.0,27,0.00,,,0.00,Wunderground v.1.15,2013-05-16 17:28:00,
2013-05-16 12:32:00,80.6,46.3,29.88,ESE,122,8.0,9.0,30,0.00,,,0.00,Wunderground v.1.15,2013-05-16 17:32:00,
2013-05-16 12:34:00,80.4,46.1,29.88,SE,128,7.0,9.0,30,0.00,,,0.00,Wunderground v.1.15,2013-05-16 17:34:00,
2013-05-16 12:40:00,80.7,44.6,29.87,SE,127,6.0,12.0,28,0.00,,,0.00,Wunderground v.1.15,2013-05-16 17:40:00,
2013-05-16 12:42:00,80.9,44.7,29.88,ESE,110,7.0,12.0,28,0.00,,,0.00,Wunderground v.1.15,2013-05-16 17:42:00,
2013-05-16 12:44:00,81.3,44.1,29.88,ESE,102,9.0,12.0,27,0.00,,,0.00,Wunderground v.1.15,2013-05-16 17:44:00,
2013-05-16 12:46:00,81.0,43.9,29.88,East,98,10.0,12.0,27,0.00,,,0.00,Wunderground v.1.15,2013-05-16 17:46:00,
2013-05-16 12:48:00,80.8,43.7,29.88,East,82,10.0,12.0,27,0.00,,,0.00,Wunderground v.1.15,2013-05-16 17:48:00,
2013-05-16 12:50:00,81.0,44.8,29.88,ENE,60,10.0,10.0,28,0.00,,,0.00,Wunderground v.1.15,2013-05-16 17:50:00,
2013-05-16 12:56:00,81.4,43.2,29.87,SE,124,9.0,17.0,26,0.00,,,0.00,Wunderground v.1.15,2013-05-16 17:56:00,
2013-05-16 12:58:00,81.4,46.1,29.87,SE,126,9.0,17.0,29,0.00,,,0.00,Wunderground v.1.15,2013-05-16 17:58:00,
2013-05-16 13:00:00,81.1,43.0,29.88,ESE,113,10.0,10.0,26,0.00,,,0.00,Wunderground v.1.15,2013-05-16 18:00:00,
2013-05-16 13:02:00,80.9,47.4,29.87,SE,134,10.0,10.0,31,0.00,,,0.00,Wunderground v.1.15,2013-05-16 18:02:00,
2013-05-16 13:06:00,81.2,45.0,29.87,SE,131,9.0,16.0,28,0.00,,,0.00,Wunderground v.1.15,2013-05-16 18:06:00,
2013-05-16 13:08:00,81.7,44.5,29.87,ESE,114,8.0,16.0,27,0.00,,,0.00,Wunderground v.1.15,2013-05-16 18:08:00,
2013-05-16 13:12:00,81.7,42.4,29.87,ESE,121,10.0,10.0,25,0.00,,,0.00,Wunderground v.1.15,2013-05-16 18:12:00,
2013-05-16 13:14:00,81.7,44.5,29.87,SE,128,11.0,11.0,27,0.00,,,0.00,Wunderground v.1.15,2013-05-16 18:14:00,
2013-05-16 13:18:00,82.0,43.7,29.87,East,95,11.0,13.0,26,0.00,,,0.00,Wunderground v.1.15,2013-05-16 18:18:00,
2013-05-16 13:20:00,82.5,42.1,29.87,ESE,106,11.0,11.0,24,0.00,,,0.00,Wunderground v.1.15,2013-05-16 18:20:00,
2013-05-16 13:26:00,82.7,43.3,29.87,ESE,109,9.0,16.0,25,0.00,,,0.00,Wunderground v.1.15,2013-05-16 18:26:00,
2013-05-16 13:28:00,82.4,43.0,29.87,ESE,110,8.0,16.0,25,0.00,,,0.00,Wunderground v.1.15,2013-05-16 18:28:00,
2013-05-16 13:34:00,82.3,41.9,29.86,East,88,10.0,12.0,24,0.00,,,0.00,Wunderground v.1.15,2013-05-16 18:34:00,
2013-05-16 13:36:00,82.3,41.9,29.86,ESE,115,10.0,12.0,24,0.00,,,0.00,Wunderground v.1.15,2013-05-16 18:36:00,
2013-05-16 13:38:00,82.3,41.9,29.86,East,90,11.0,12.0,24,0.00,,,0.00,Wunderground v.1.15,2013-05-16 18:38:00,
2013-05-16 13:40:00,82.2,41.8,29.86,ENE,62,11.0,11.0,24,0.00,,,0.00,Wunderground v.1.15,2013-05-16 18:40:00,
2013-05-16 13:42:00,82.4,42.0,29.86,ENE,65,10.0,11.0,24,0.00,,,0.00,Wunderground v.1.15,2013-05-16 18:42:00,
2013-05-16 13:48:00,82.5,42.1,29.86,ESE,117,10.0,11.0,24,0.00,,,0.00,Wunderground v.1.15,2013-05-16 18:48:00,
2013-05-16 13:50:00,82.4,40.9,29.86,SE,124,10.0,10.0,23,0.00,,,0.00,Wunderground v.1.15,2013-05-16 18:50:00,
2013-05-16 13:54:00,82.4,43.0,29.86,ESE,119,10.0,16.0,25,0.00,,,0.00,Wunderground v.1.15,2013-05-16 18:54:00,
2013-05-16 13:56:00,82.8,43.4,29.85,ESE,115,10.0,16.0,25,0.00,,,0.00,Wunderground v.1.15,2013-05-16 18:56:00,
2013-05-16 13:58:00,82.7,43.3,29.86,ESE,114,10.0,16.0,25,0.00,,,0.00,Wunderground v.1.15,2013-05-16 18:58:00,
2013-05-16 14:00:00,82.7,44.3,29.85,SE,138,10.0,11.0,26,0.00,,,0.00,Wunderground v.1.15,2013-05-16 19:00:00,
2013-05-16 14:04:00,82.9,42.4,29.85,SSE,149,10.0,13.0,24,0.00,,,0.00,Wunderground v.1.15,2013-05-16 19:04:00,
2013-05-16 14:06:00,82.8,42.3,29.85,ESE,111,9.0,13.0,24,0.00,,,0.00,Wunderground v.1.15,2013-05-16 19:06:00,
2013-05-16 14:08:00,82.9,43.5,29.85,ESE,110,9.0,13.0,25,0.00,,,0.00,Wunderground v.1.15,2013-05-16 19:08:00,
2013-05-16 14:10:00,83.3,45.8,29.85,ESE,121,9.0,15.0,27,0.00,,,0.00,Wunderground v.1.15,2013-05-16 19:10:00,
2013-05-16 14:14:00,83.9,43.2,29.85,ESE,111,10.0,15.0,24,0.00,,,0.00,Wunderground v.1.15,2013-05-16 19:14:00,
2013-05-16 14:16:00,83.6,44.1,29.85,ESE,107,10.0,15.0,25,0.00,,,0.00,Wunderground v.1.15,2013-05-16 19:16:00,
2013-05-16 14:20:00,83.3,43.8,29.85,ESE,115,9.0,16.0,25,0.00,,,0.00,Wunderground v.1.15,2013-05-16 19:20:00,
2013-05-16 14:24:00,83.8,43.2,29.85,ESE,107,10.0,16.0,24,0.00,,,0.00,Wunderground v.1.15,2013-05-16 19:24:00,
2013-05-16 14:30:00,83.5,45.0,29.85,SE,142,12.0,12.0,26,0.00,,,0.00,Wunderground v.1.15,2013-05-16 19:30:00,
2013-05-16 14:34:00,83.6,44.1,29.85,SE,146,11.0,12.0,25,0.00,,,0.00,Wunderground v.1.15,2013-05-16 19:34:00,
2013-05-16 14:36:00,83.6,44.1,29.85,SE,142,9.0,12.0,25,0.00,,,0.00,Wunderground v.1.15,2013-05-16 19:36:00,
2013-05-16 14:38:00,84.0,43.3,29.85,ESE,106,8.0,12.0,24,0.00,,,0.00,Wunderground v.1.15,2013-05-16 19:38:00,
2013-05-16 14:40:00,84.1,43.4,29.85,East,92,8.0,9.0,24,0.00,,,0.00,Wunderground v.1.15,2013-05-16 19:40:00,
2013-05-16 14:44:00,83.9,44.3,29.85,SE,146,7.0,9.0,25,0.00,,,0.00,Wunderground v.1.15,2013-05-16 19:44:00,
2013-05-16 14:50:00,84.6,45.9,29.85,ESE,118,9.0,12.0,26,0.00,,,0.00,Wunderground v.1.15,2013-05-16 19:50:00,
2013-05-16 14:52:00,84.4,43.7,29.85,ESE,117,10.0,15.0,24,0.00,,,0.00,Wunderground v.1.15,2013-05-16 19:52:00,
2013-05-16 14:56:00,83.8,45.3,29.85,ESE,105,10.0,15.0,26,0.00,,,0.00,Wunderground v.1.15,2013-05-16 19:56:00,
2013-05-16 14:58:00,83.7,43.1,29.85,ESE,110,11.0,15.0,24,0.00,,,0.00,Wunderground v.1.15,2013-05-16 19:58:00,
2013-05-16 15:00:00,83.6,45.1,29.84,ESE,114,11.0,13.0,26,0.00,,,0.00,Wunderground v.1.15,2013-05-16 20:00:00,
2013-05-16 15:02:00,83.8,44.2,29.84,ESE,106,11.0,14.0,25,0.00,,,0.00,Wunderground v.1.15,2013-05-16 20:02:00,
2013-05-16 15:04:00,84.3,44.6,29.85,ESE,120,11.0,14.0,25,0.00,,,0.00,Wunderground v.1.15,2013-05-16 20:04:00,
2013-05-16 15:06:00,84.3,42.5,29.84,ESE,108,12.0,14.0,23,0.00,,,0.00,Wunderground v.1.15,2013-05-16 20:06:00,
2013-05-16 15:08:00,84.3,43.6,29.84,ESE,112,11.0,14.0,24,0.00,,,0.00,Wunderground v.1.15,2013-05-16 20:08:00,
2013-05-16 15:12:00,84.1,45.5,29.84,East,91,10.0,11.0,26,0.00,,,0.00,Wunderground v.1.15,2013-05-16 20:12:00,
2013-05-16 15:14:00,84.3,44.6,29.84,South,175,10.0,11.0,25,0.00,,,0.00,Wunderground v.1.15,2013-05-16 20:14:00,
2013-05-16 15:18:00,84.8,44.0,29.84,SE,128,9.0,15.0,24,0.00,,,0.00,Wunderground v.1.15,2013-05-16 20:18:00,
2013-05-16 15:22:00,84.3,43.6,29.84,ESE,108,9.0,10.0,24,0.00,,,0.00,Wunderground v.1.15,2013-05-16 20:22:00,
2013-05-16 15:24:00,84.4,43.7,29.84,SE,124,10.0,13.0,24,0.00,,,0.00,Wunderground v.1.15,2013-05-16 20:24:00,
2013-05-16 15:28:00,84.4,43.7,29.84,East,93,10.0,16.0,24,0.00,,,0.00,Wunderground v.1.15,2013-05-16 20:28:00,
2013-05-16 15:30:00,84.4,43.7,29.84,SE,128,10.0,10.0,24,0.00,,,0.00,Wunderground v.1.15,2013-05-16 20:30:00,
2013-05-16 15:32:00,84.3,43.6,29.83,South,176,10.0,11.0,24,0.00,,,0.00,Wunderground v.1.15,2013-05-16 20:32:00,
2013-05-16 15:34:00,84.5,43.7,29.84,ESE,118,11.0,11.0,24,0.00,,,0.00,Wunderground v.1.15,2013-05-16 20:34:00,
2013-05-16 15:36:00,84.7,43.9,29.84,SE,139,11.0,11.0,24,0.00,,,0.00,Wunderground v.1.15,2013-05-16 20:36:00,
2013-05-16 15:40:00,84.5,43.7,29.83,ESE,112,11.0,11.0,24,0.00,,,0.00,Wunderground v.1.15,2013-05-16 20:40:00,
2013-05-16 15:44:00,84.7,43.9,29.84,SE,142,9.0,11.0,24,0.00,,,0.00,Wunderground v.1.15,2013-05-16 20:44:00,
2013-05-16 15:46:00,84.9,44.1,29.84,ESE,118,8.0,13.0,24,0.00,,,0.00,Wunderground v.1.15,2013-05-16 20:46:00,
2013-05-16 15:50:00,84.1,42.3,29.84,SE,135,8.0,10.0,23,0.00,,,0.00,Wunderground v.1.15,2013-05-16 20:50:00,
2013-05-16 15:52:00,83.7,40.8,29.84,SE,124,9.0,10.0,22,0.00,,,0.00,Wunderground v.1.15,2013-05-16 20:52:00,
2013-05-16 15:54:00,83.4,41.7,29.83,ESE,122,10.0,10.0,23,0.00,,,0.00,Wunderground v.1.15,2013-05-16 20:54:00,
2013-05-16 15:56:00,83.2,41.5,29.84,ESE,118,10.0,11.0,23,0.00,,,0.00,Wunderground v.1.15,2013-05-16 20:56:00,
2013-05-16 15:58:00,83.1,41.5,29.83,East,89,10.0,11.0,23,0.00,,,0.00,Wunderground v.1.15,2013-05-16 20:58:00,
2013-05-16 16:02:00,83.3,41.6,29.83,ESE,109,10.0,10.0,23,0.00,,,0.00,Wunderground v.1.15,2013-05-16 21:02:00,
2013-05-16 16:06:00,83.2,41.5,29.83,East,91,10.0,14.0,23,0.00,,,0.00,Wunderground v.1.15,2013-05-16 21:06:00,
2013-05-16 16:08:00,83.2,41.5,29.83,East,92,10.0,14.0,23,0.00,,,0.00,Wunderground v.1.15,2013-05-16 21:08:00,
2013-05-16 16:12:00,83.2,41.5,29.83,ESE,113,10.0,10.0,23,0.00,,,0.00,Wunderground v.1.15,2013-05-16 21:12:00,
2013-05-16 16:14:00,83.1,41.5,29.83,ESE,107,10.0,10.0,23,0.00,,,0.00,Wunderground v.1.15,2013-05-16 21:14:00,
2013-05-16 16:16:00,83.0,41.4,29.83,East,100,9.0,10.0,23,0.00,,,0.00,Wunderground v.1.15,2013-05-16 21:16:00,
2013-05-16 16:18:00,83.2,43.7,29.83,ESE,107,9.0,10.0,25,0.00,,,0.00,Wunderground v.1.15,2013-05-16 21:18:00,
2013-05-16 16:20:00,83.2,41.5,29.83,ESE,113,8.0,11.0,23,0.00,,,0.00,Wunderground v.1.15,2013-05-16 21:20:00,
2013-05-16 16:24:00,83.5,40.6,29.83,ESE,109,9.0,13.0,22,0.00,,,0.00,Wunderground v.1.15,2013-05-16 21:24:00,
2013-05-16 16:26:00,83.5,42.9,29.83,ESE,114,10.0,13.0,24,0.00,,,0.00,Wunderground v.1.15,2013-05-16 21:26:00,
2013-05-16 16:28:00,83.4,41.7,29.83,South,172,9.0,13.0,23,0.00,,,0.00,Wunderground v.1.15,2013-05-16 21:28:00,
2013-05-16 16:30:00,83.4,42.8,29.83,ESE,104,8.0,8.0,24,0.00,,,0.00,Wunderground v.1.15,2013-05-16 21:30:00,
2013-05-16 16:36:00,84.0,42.2,29.83,SE,144,4.0,10.0,23,0.00,,,0.00,Wunderground v.1.15,2013-05-16 21:36:00,
2013-05-16 16:38:00,83.9,42.1,29.83,ESE,121,5.0,10.0,23,0.00,,,0.00,Wunderground v.1.15,2013-05-16 21:38:00,
2013-05-16 16:40:00,83.7,42.0,29.83,SE,143,6.0,8.0,23,0.00,,,0.00,Wunderground v.1.15,2013-05-16 21:40:00,
2013-05-16 16:42:00,83.6,41.9,29.83,SSW,211,6.0,8.0,23,0.00,,,0.00,Wunderground v.1.15,2013-05-16 21:42:00,
2013-05-16 16:44:00,83.5,41.8,29.83,SE,131,7.0,8.0,23,0.00,,,0.00,Wunderground v.1.15,2013-05-16 21:44:00,
2013-05-16 16:46:00,83.6,41.9,29.83,SE,129,8.0,8.0,23,0.00,,,0.00,Wunderground v.1.15,2013-05-16 21:46:00,
2013-05-16 16:48:00,83.6,41.9,29.83,SE,128,7.0,8.0,23,0.00,,,0.00,Wunderground v.1.15,2013-05-16 21:48:00,
2013-05-16 16:50:00,83.5,40.6,29.83,ESE,120,7.0,12.0,22,0.00,,,0.00,Wunderground v.1.15,2013-05-16 21:50:00,
2013-05-16 16:52:00,83.5,41.8,29.83,ESE,112,8.0,12.0,23,0.00,,,0.00,Wunderground v.1.15,2013-05-16 21:52:00,
2013-05-16 16:58:00,83.3,41.6,29.83,ESE,113,8.0,12.0,23,0.00,,,0.00,Wunderground v.1.15,2013-05-16 21:58:00,
2013-05-16 17:00:00,83.3,42.7,29.83,ESE,113,8.0,8.0,24,0.00,,,0.00,Wunderground v.1.15,2013-05-16 22:00:00,
2013-05-16 17:02:00,83.3,41.6,29.83,ESE,103,7.0,8.0,23,0.00,,,0.00,Wunderground v.1.15,2013-05-16 22:02:00,
2013-05-16 17:04:00,83.4,41.7,29.83,SE,124,7.0,9.0,23,0.00,,,0.00,Wunderground v.1.15,2013-05-16 22:04:00,
2013-05-16 17:06:00,83.3,41.6,29.83,ESE,117,7.0,9.0,23,0.00,,,0.00,Wunderground v.1.15,2013-05-16 22:06:00,
2013-05-16 17:08:00,83.3,41.6,29.83,ESE,118,7.0,9.0,23,0.00,,,0.00,Wunderground v.1.15,2013-05-16 22:08:00,
2013-05-16 17:12:00,83.3,41.6,29.83,East,79,6.0,7.0,23,0.00,,,0.00,Wunderground v.1.15,2013-05-16 22:12:00,
2013-05-16 17:14:00,83.5,41.8,29.82,ESE,110,6.0,7.0,23,0.00,,,0.00,Wunderground v.1.15,2013-05-16 22:14:00,
2013-05-16 17:18:00,83.7,42.0,29.82,East,85,6.0,9.0,23,0.00,,,0.00,Wunderground v.1.15,2013-05-16 22:18:00,
2013-05-16 17:20:00,83.7,42.0,29.82,East,90,6.0,9.0,23,0.00,,,0.00,Wunderground v.1.15,2013-05-16 22:20:00,
2013-05-16 17:22:00,83.6,41.9,29.83,ESE,116,7.0,9.0,23,0.00,,,0.00,Wunderground v.1.15,2013-05-16 22:22:00,
2013-05-16 17:24:00,83.6,43.0,29.82,East,82,8.0,9.0,24,0.00,,,0.00,Wunderground v.1.15,2013-05-16 22:24:00,
2013-05-16 17:26:00,83.7,42.0,29.82,ESE,107,8.0,9.0,23,0.00,,,0.00,Wunderground v.1.15,2013-05-16 22:26:00,
2013-05-16 17:28:00,83.9,42.1,29.82,ENE,73,9.0,11.0,23,0.00,,,0.00,Wunderground v.1.15,2013-05-16 22:28:00,
2013-05-16 17:30:00,83.9,42.1,29.82,East,85,9.0,9.0,23,0.00,,,0.00,Wunderground v.1.15,2013-05-16 22:30:00,
2013-05-16 17:32:00,84.0,42.2,29.82,East,96,9.0,9.0,23,0.00,,,0.00,Wunderground v.1.15,2013-05-16 22:32:00,
2013-05-16 17:36:00,84.0,42.2,29.82,ESE,102,9.0,12.0,23,0.00,,,0.00,Wunderground v.1.15,2013-05-16 22:36:00,
2013-05-16 17:38:00,83.9,42.1,29.82,East,83,10.0,12.0,23,0.00,,,0.00,Wunderground v.1.15,2013-05-16 22:38:00,
2013-05-16 17:42:00,83.9,42.1,29.82,East,79,9.0,10.0,23,0.00,,,0.00,Wunderground v.1.15,2013-05-16 22:42:00,
2013-05-16 17:44:00,83.7,42.0,29.83,East,83,9.0,10.0,23,0.00,,,0.00,Wunderground v.1.15,2013-05-16 22:44:00,
2013-05-16 17:46:00,83.7,43.1,29.83,NE,43,7.0,10.0,24,0.00,,,0.00,Wunderground v.1.15,2013-05-16 22:46:00,
2013-05-16 17:48:00,83.7,42.0,29.83,ENE,65,6.0,10.0,23,0.00,,,0.00,Wunderground v.1.15,2013-05-16 22:48:00,
2013-05-16 17:50:00,83.8,43.2,29.82,NE,50,4.0,7.0,24,0.00,,,0.00,Wunderground v.1.15,2013-05-16 22:50:00,
2013-05-16 17:54:00,84.0,42.2,29.82,ESE,109,5.0,12.0,23,0.00,,,0.00,Wunderground v.1.15,2013-05-16 22:54:00,
2013-05-16 17:56:00,83.8,42.0,29.82,East,82,6.0,12.0,23,0.00,,,0.00,Wunderground v.1.15,2013-05-16 22:56:00,
2013-05-16 17:58:00,83.7,42.0,29.82,East,81,7.0,12.0,23,0.00,,,0.00,Wunderground v.1.15,2013-05-16 22:58:00,
2013-05-16 18:00:00,83.7,43.1,29.82,ESE,104,8.0,8.0,24,0.00,,,0.00,Wunderground v.1.15,2013-05-16 23:00:00,
2013-05-16 18:04:00,83.8,42.0,29.82,East,96,9.0,9.0,23,0.00,,,0.00,Wunderground v.1.15,2013-05-16 23:04:00,
2013-05-16 18:06:00,83.8,42.0,29.82,ESE,104,9.0,9.0,23,0.00,,,0.00,Wunderground v.1.15,2013-05-16 23:06:00,
2013-05-16 18:08:00,83.8,42.0,29.83,ESE,111,9.0,9.0,23,0.00,,,0.00,Wunderground v.1.15,2013-05-16 23:08:00,
2013-05-16 18:12:00,83.8,42.0,29.83,ESE,117,8.0,9.0,23,0.00,,,0.00,Wunderground v.1.15,2013-05-16 23:12:00,
2013-05-16 18:14:00,83.7,43.1,29.83,East,89,7.0,9.0,24,0.00,,,0.00,Wunderground v.1.15,2013-05-16 23:14:00,
2013-05-16 18:18:00,83.8,42.0,29.82,East,101,6.0,9.0,23,0.00,,,0.00,Wunderground v.1.15,2013-05-16 23:18:00,
2013-05-16 18:20:00,83.8,42.0,29.82,East,88,6.0,7.0,23,0.00,,,0.00,Wunderground v.1.15,2013-05-16 23:20:00,
2013-05-16 18:22:00,83.8,43.2,29.82,East,97,6.0,7.0,24,0.00,,,0.00,Wunderground v.1.15,2013-05-16 23:22:00,
2013-05-16 18:26:00,83.7,42.0,29.82,East,95,6.0,7.0,23,0.00,,,0.00,Wunderground v.1.15,2013-05-16 23:26:00,
2013-05-16 18:28:00,83.6,43.0,29.82,ESE,117,6.0,7.0,24,0.00,,,0.00,Wunderground v.1.15,2013-05-16 23:28:00,
2013-05-16 18:30:00,83.6,44.1,29.82,ESE,105,6.0,6.0,25,0.00,,,0.00,Wunderground v.1.15,2013-05-16 23:30:00,
2013-05-16 18:36:00,83.5,44.0,29.82,ESE,120,5.0,7.0,25,0.00,,,0.00,Wunderground v.1.15,2013-05-16 23:36:00,
2013-05-16 18:38:00,83.4,42.8,29.82,ESE,106,5.0,7.0,24,0.00,,,0.00,Wunderground v.1.15,2013-05-16 23:38:00,
2013-05-16 18:40:00,83.4,43.9,29.82,ESE,115,5.0,5.0,25,0.00,,,0.00,Wunderground v.1.15,2013-05-16 23:40:00,
2013-05-16 18:42:00,83.4,43.9,29.82,SE,128,4.0,7.0,25,0.00,,,0.00,Wunderground v.1.15,2013-05-16 23:42:00,
2013-05-16 18:46:00,83.4,44.9,29.82,ESE,114,4.0,7.0,26,0.00,,,0.00,Wunderground v.1.15,2013-05-16 23:46:00,
2013-05-16 18:48:00,83.3,43.8,29.82,South,188,3.0,7.0,25,0.00,,,0.00,Wunderground v.1.15,2013-05-16 23:48:00,
2013-05-16 18:50:00,83.3,43.8,29.82,SSW,204,3.0,7.0,25,0.00,,,0.00,Wunderground v.1.15,2013-05-16 23:50:00,
2013-05-16 18:56:00,83.3,43.8,29.82,South,184,3.0,7.0,25,0.00,,,0.00,Wunderground v.1.15,2013-05-16 23:56:00,
2013-05-16 18:58:00,83.2,43.7,29.82,South,188,4.0,7.0,25,0.00,,,0.00,Wunderground v.1.15,2013-05-16 23:58:00,
2013-05-16 19:00:00,83.2,43.7,29.82,South,172,4.0,8.0,25,0.00,,,0.00,Wunderground v.1.15,2013-05-17 00:00:00,
2013-05-16 19:02:00,83.2,43.7,29.82,SSE,165,5.0,8.0,25,0.00,,,0.00,Wunderground v.1.15,2013-05-17 00:02:00,
2013-05-16 19:04:00,83.1,43.6,29.83,South,191,5.0,8.0,25,0.00,,,0.00,Wunderground v.1.15,2013-05-17 00:04:00,
2013-05-16 19:06:00,83.0,44.6,29.83,ESE,104,6.0,8.0,26,0.00,,,0.00,Wunderground v.1.15,2013-05-17 00:06:00,
2013-05-16 19:08:00,82.8,45.4,29.83,South,190,6.0,8.0,27,0.00,,,0.00,Wunderground v.1.15,2013-05-17 00:08:00,
2013-05-16 19:12:00,82.6,46.2,29.83,South,174,7.0,8.0,28,0.00,,,0.00,Wunderground v.1.15,2013-05-17 00:12:00,
2013-05-16 19:14:00,82.4,46.0,29.83,SSE,168,7.0,8.0,28,0.00,,,0.00,Wunderground v.1.15,2013-05-17 00:14:00,
2013-05-16 19:18:00,82.1,46.7,29.83,SSW,194,7.0,8.0,29,0.00,,,0.00,Wunderground v.1.15,2013-05-17 00:18:00,
2013-05-16 19:20:00,81.9,46.5,29.83,SSE,162,7.0,7.0,29,0.00,,,0.00,Wunderground v.1.15,2013-05-17 00:20:00,
2013-05-16 19:22:00,81.8,46.4,29.83,SSE,158,7.0,7.0,29,0.00,,,0.00,Wunderground v.1.15,2013-05-17 00:22:00,
2013-05-16 19:24:00,81.7,46.3,29.83,SSW,195,6.0,7.0,29,0.00,,,0.00,Wunderground v.1.15,2013-05-17 00:24:00,
2013-05-16 19:28:00,81.4,47.0,29.83,South,183,5.0,7.0,30,0.00,,,0.00,Wunderground v.1.15,2013-05-17 00:28:00,
2013-05-16 19:30:00,81.2,47.7,29.83,SE,142,4.0,4.0,31,0.00,,,0.00,Wunderground v.1.15,2013-05-17 00:30:00,
2013-05-16 19:32:00,81.0,47.5,29.83,SE,136,3.0,7.0,31,0.00,,,0.00,Wunderground v.1.15,2013-05-17 00:32:00,
2013-05-16 19:34:00,80.8,47.3,29.83,SE,135,2.0,7.0,31,0.00,,,0.00,Wunderground v.1.15,2013-05-17 00:34:00,
2013-05-16 19:38:00,80.6,47.2,29.83,ESE,117,2.0,7.0,31,0.00,,,0.00,Wunderground v.1.15,2013-05-17 00:38:00,
2013-05-16 19:40:00,80.5,47.1,29.83,South,179,2.0,7.0,31,0.00,,,0.00,Wunderground v.1.15,2013-05-17 00:40:00,
2013-05-16 19:42:00,80.5,47.9,29.83,SE,143,2.0,7.0,32,0.00,,,0.00,Wunderground v.1.15,2013-05-17 00:42:00,
2013-05-16 19:44:00,80.4,47.8,29.83,SE,128,2.0,7.0,32,0.00,,,0.00,Wunderground v.1.15,2013-05-17 00:44:00,
2013-05-16 19:46:00,80.2,47.7,29.83,SE,132,2.0,7.0,32,0.00,,,0.00,Wunderground v.1.15,2013-05-17 00:46:00,
2013-05-16 19:50:00,80.0,47.5,29.83,SSE,153,2.0,7.0,32,0.00,,,0.00,Wunderground v.1.15,2013-05-17 00:50:00,
2013-05-16 19:52:00,79.8,47.3,29.83,SE,131,2.0,7.0,32,0.00,,,0.00,Wunderground v.1.15,2013-05-17 00:52:00,
2013-05-16 19:58:00,79.2,47.6,29.83,SE,131,2.0,7.0,33,0.00,,,0.00,Wunderground v.1.15,2013-05-17 00:58:00,
2013-05-16 20:00:00,79.1,47.5,29.83,ESE,118,2.0,7.0,33,0.00,,,0.00,Wunderground v.1.15,2013-05-17 01:00:00,
2013-05-16 20:02:00,79.0,47.4,29.83,SE,125,3.0,7.0,33,0.00,,,0.00,Wunderground v.1.15,2013-05-17 01:02:00,
2013-05-16 20:04:00,78.9,47.3,29.83,SE,124,3.0,7.0,33,0.00,,,0.00,Wunderground v.1.15,2013-05-17 01:04:00,
2013-05-16 20:06:00,78.9,47.3,29.83,SE,128,3.0,7.0,33,0.00,,,0.00,Wunderground v.1.15,2013-05-17 01:06:00,
2013-05-16 20:08:00,78.8,47.3,29.83,SE,124,3.0,7.0,33,0.00,,,0.00,Wunderground v.1.15,2013-05-17 01:08:00,
2013-05-16 20:10:00,78.7,47.2,29.83,SE,124,3.0,7.0,33,0.00,,,0.00,Wunderground v.1.15,2013-05-17 01:10:00,
2013-05-16 20:14:00,78.8,47.3,29.83,ESE,118,3.0,7.0,33,0.00,,,0.00,Wunderground v.1.15,2013-05-17 01:14:00,
2013-05-16 20:16:00,78.7,47.2,29.83,ESE,117,3.0,7.0,33,0.00,,,0.00,Wunderground v.1.15,2013-05-17 01:16:00,
2013-05-16 20:20:00,78.5,47.8,29.84,ESE,119,3.0,7.0,34,0.00,,,0.00,Wunderground v.1.15,2013-05-17 01:20:00,
2013-05-16 20:22:00,78.4,47.7,29.84,ESE,113,3.0,7.0,34,0.00,,,0.00,Wunderground v.1.15,2013-05-17 01:22:00,
2013-05-16 20:24:00,78.4,47.7,29.84,ESE,110,3.0,7.0,34,0.00,,,0.00,Wunderground v.1.15,2013-05-17 01:24:00,
2013-05-16 20:26:00,78.4,47.7,29.84,ESE,108,3.0,7.0,34,0.00,,,0.00,Wunderground v.1.15,2013-05-17 01:26:00,
2013-05-16 20:28:00,78.3,47.6,29.84,East,101,3.0,7.0,34,0.00,,,0.00,Wunderground v.1.15,2013-05-17 01:28:00,
2013-05-16 20:30:00,78.3,47.6,29.84,East,94,3.0,7.0,34,0.00,,,0.00,Wunderground v.1.15,2013-05-17 01:30:00,
2013-05-16 20:32:00,78.2,47.5,29.84,East,93,4.0,7.0,34,0.00,,,0.00,Wunderground v.1.15,2013-05-17 01:32:00,
2013-05-16 20:34:00,78.0,47.4,29.84,East,87,4.0,7.0,34,0.00,,,0.00,Wunderground v.1.15,2013-05-17 01:34:00,
2013-05-16 20:38:00,77.7,47.1,29.84,ENE,72,4.0,7.0,34,0.00,,,0.00,Wunderground v.1.15,2013-05-17 01:38:00,
2013-05-16 20:40:00,77.4,47.6,29.85,ENE,76,4.0,7.0,35,0.00,,,0.00,Wunderground v.1.15,2013-05-17 01:40:00,
2013-05-16 20:42:00,77.0,48.0,29.85,ENE,77,5.0,7.0,36,0.00,,,0.00,Wunderground v.1.15,2013-05-17 01:42:00,
2013-05-16 20:46:00,76.7,47.7,29.85,East,83,6.0,7.0,36,0.00,,,0.00,Wunderground v.1.15,2013-05-17 01:46:00,
2013-05-16 20:50:00,76.2,48.0,29.85,East,92,6.0,6.0,37,0.00,,,0.00,Wunderground v.1.15,2013-05-17 01:50:00,
2013-05-16 20:52:00,76.0,47.8,29.85,East,94,5.0,7.0,37,0.00,,,0.00,Wunderground v.1.15,2013-05-17 01:52:00,
2013-05-16 20:56:00,75.5,48.1,29.86,ESE,107,5.0,7.0,38,0.00,,,0.00,Wunderground v.1.15,2013-05-17 01:56:00,
2013-05-16 20:58:00,75.2,47.8,29.86,East,96,4.0,7.0,38,0.00,,,0.00,Wunderground v.1.15,2013-05-17 01:58:00,
2013-05-16 21:00:00,75.0,48.4,29.86,East,98,4.0,7.0,39,0.00,,,0.00,Wunderground v.1.15,2013-05-17 02:00:00,
2013-05-16 21:04:00,75.2,48.5,29.86,East,96,4.0,7.0,39,0.00,,,0.00,Wunderground v.1.15,2013-05-17 02:04:00,
2013-05-16 21:06:00,75.2,48.5,29.86,East,91,4.0,7.0,39,0.00,,,0.00,Wunderground v.1.15,2013-05-17 02:06:00,
2013-05-16 21:10:00,75.2,48.5,29.86,East,96,5.0,7.0,39,0.00,,,0.00,Wunderground v.1.15,2013-05-17 02:10:00,
2013-05-16 21:12:00,75.1,48.4,29.86,East,98,5.0,7.0,39,0.00,,,0.00,Wunderground v.1.15,2013-05-17 02:12:00,
2013-05-16 21:14:00,75.0,48.4,29.86,East,95,5.0,7.0,39,0.00,,,0.00,Wunderground v.1.15,2013-05-17 02:14:00,
2013-05-16 21:16:00,74.9,48.3,29.86,East,90,5.0,7.0,39,0.00,,,0.00,Wunderground v.1.15,2013-05-17 02:16:00,
2013-05-16 21:18:00,74.8,48.2,29.86,East,92,5.0,7.0,39,0.00,,,0.00,Wunderground v.1.15,2013-05-17 02:18:00,
2013-05-16 21:20:00,74.7,48.1,29.86,East,86,5.0,7.0,39,0.00,,,0.00,Wunderground v.1.15,2013-05-17 02:20:00,
2013-05-16 21:22:00,74.5,48.6,29.86,East,87,5.0,7.0,40,0.00,,,0.00,Wunderground v.1.15,2013-05-17 02:22:00,
2013-05-16 21:26:00,74.2,48.3,29.87,East,87,5.0,7.0,40,0.00,,,0.00,Wunderground v.1.15,2013-05-17 02:26:00,
2013-05-16 21:30:00,74.0,48.1,29.86,East,92,5.0,7.0,40,0.00,,,0.00,Wunderground v.1.15,2013-05-17 02:30:00,
2013-05-16 21:32:00,74.0,48.1,29.87,East,92,5.0,7.0,40,0.00,,,0.00,Wunderground v.1.15,2013-05-17 02:32:00,
2013-05-16 21:36:00,73.9,48.1,29.87,East,91,6.0,7.0,40,0.00,,,0.00,Wunderground v.1.15,2013-05-17 02:36:00,
2013-05-16 21:38:00,73.7,47.9,29.87,East,83,6.0,7.0,40,0.00,,,0.00,Wunderground v.1.15,2013-05-17 02:38:00,
2013-05-16 21:42:00,73.3,47.5,29.87,East,88,6.0,7.0,40,0.00,,,0.00,Wunderground v.1.15,2013-05-17 02:42:00,
2013-05-16 21:46:00,73.0,47.2,29.87,East,91,6.0,7.0,40,0.00,,,0.00,Wunderground v.1.15,2013-05-17 02:46:00,
2013-05-16 21:48:00,72.8,47.1,29.88,East,94,6.0,7.0,40,0.00,,,0.00,Wunderground v.1.15,2013-05-17 02:48:00,
2013-05-16 21:50:00,72.7,47.0,29.88,East,101,6.0,7.0,40,0.00,,,0.00,Wunderground v.1.15,2013-05-17 02:50:00,
2013-05-16 21:52:00,72.7,47.0,29.88,East,94,6.0,7.0,40,0.00,,,0.00,Wunderground v.1.15,2013-05-17 02:52:00,
2013-05-16 21:54:00,72.6,47.5,29.88,East,87,6.0,7.0,41,0.00,,,0.00,Wunderground v.1.15,2013-05-17 02:54:00,
2013-05-16 21:56:00,72.5,47.5,29.88,ESE,111,6.0,7.0,41,0.00,,,0.00,Wunderground v.1.15,2013-05-17 02:56:00,
2013-05-16 21:58:00,72.4,47.4,29.88,East,98,6.0,7.0,41,0.00,,,0.00,Wunderground v.1.15,2013-05-17 02:58:00,
2013-05-16 22:00:00,72.5,47.5,29.88,East,79,6.0,7.0,41,0.00,,,0.00,Wunderground v.1.15,2013-05-17 03:00:00,
2013-05-16 22:04:00,72.7,47.0,29.88,East,90,6.0,7.0,40,0.00,,,0.00,Wunderground v.1.15,2013-05-17 03:04:00,
2013-05-16 22:06:00,72.7,47.0,29.88,East,84,7.0,7.0,40,0.00,,,0.00,Wunderground v.1.15,2013-05-17 03:06:00,
2013-05-16 22:08:00,72.8,47.1,29.88,East,90,7.0,9.0,40,0.00,,,0.00,Wunderground v.1.15,2013-05-17 03:08:00,
2013-05-16 22:10:00,73.0,47.2,29.88,East,86,7.0,8.0,40,0.00,,,0.00,Wunderground v.1.15,2013-05-17 03:10:00,
2013-05-16 22:12:00,73.0,47.2,29.88,East,82,7.0,8.0,40,0.00,,,0.00,Wunderground v.1.15,2013-05-17 03:12:00,
2013-05-16 22:16:00,73.1,46.7,29.88,East,82,8.0,9.0,39,0.00,,,0.00,Wunderground v.1.15,2013-05-17 03:16:00,
2013-05-16 22:18:00,73.2,46.8,29.88,East,92,8.0,15.0,39,0.00,,,0.00,Wunderground v.1.15,2013-05-17 03:18:00,
2013-05-16 22:22:00,73.6,47.1,29.88,ESE,105,10.0,15.0,39,0.00,,,0.00,Wunderground v.1.15,2013-05-17 03:22:00,
2013-05-16 22:24:00,73.6,47.1,29.88,East,101,11.0,15.0,39,0.00,,,0.00,Wunderground v.1.15,2013-05-17 03:24:00,
2013-05-16 22:26:00,73.6,47.1,29.88,ESE,103,12.0,15.0,39,0.00,,,0.00,Wunderground v.1.15,2013-05-17 03:26:00,
2013-05-16 22:28:00,73.7,47.2,29.88,ESE,108,13.0,15.0,39,0.00,,,0.00,Wunderground v.1.15,2013-05-17 03:28:00,
2013-05-16 22:30:00,73.7,47.2,29.88,ESE,111,13.0,13.0,39,0.00,,,0.00,Wunderground v.1.15,2013-05-17 03:30:00,
2013-05-16 22:32:00,73.8,47.3,29.88,East,95,14.0,14.0,39,0.00,,,0.00,Wunderground v.1.15,2013-05-17 03:32:00,
2013-05-16 22:34:00,73.8,47.3,29.88,ESE,120,14.0,14.0,39,0.00,,,0.00,Wunderground v.1.15,2013-05-17 03:34:00,
2013-05-16 22:40:00,73.8,47.3,29.89,East,85,14.0,15.0,39,0.00,,,0.00,Wunderground v.1.15,2013-05-17 03:40:00,
2013-05-16 22:44:00,73.8,47.3,29.89,East,101,15.0,15.0,39,0.00,,,0.00,Wunderground v.1.15,2013-05-17 03:44:00,
2013-05-16 22:46:00,73.7,46.5,29.88,ESE,119,15.0,15.0,38,0.00,,,0.00,Wunderground v.1.15,2013-05-17 03:46:00,
2013-05-16 22:48:00,73.6,46.4,29.88,ESE,110,15.0,15.0,38,0.00,,,0.00,Wunderground v.1.15,2013-05-17 03:48:00,
2013-05-16 22:52:00,73.6,46.4,29.88,East,101,15.0,22.0,38,0.00,,,0.00,Wunderground v.1.15,2013-05-17 03:52:00,
2013-05-16 22:54:00,73.7,45.8,29.88,East,100,16.0,22.0,37,0.00,,,0.00,Wunderground v.1.15,2013-05-17 03:54:00,
2013-05-16 22:56:00,73.6,45.7,29.88,East,95,16.0,22.0,37,0.00,,,0.00,Wunderground v.1.15,2013-05-17 03:56:00,
2013-05-16 23:00:00,73.5,45.6,29.88,ENE,71,18.0,18.0,37,0.00,,,0.00,Wunderground v.1.15,2013-05-17 04:00:00,
2013-05-16 23:02:00,73.4,45.5,29.88,East,101,19.0,22.0,37,0.00,,,0.00,Wunderground v.1.15,2013-05-17 04:02:00,
2013-05-16 23:04:00,73.3,45.4,29.88,East,94,19.0,22.0,37,0.00,,,0.00,Wunderground v.1.15,2013-05-17 04:04:00,
2013-05-16 23:10:00,72.9,45.8,29.88,East,98,19.0,19.0,38,0.00,,,0.00,Wunderground v.1.15,2013-05-17 04:10:00,
2013-05-16 23:14:00,72.7,45.6,29.88,East,86,19.0,19.0,38,0.00,,,0.00,Wunderground v.1.15,2013-05-17 04:14:00,
2013-05-16 23:16:00,72.6,45.5,29.88,East,79,18.0,19.0,38,0.00,,,0.00,Wunderground v.1.15,2013-05-17 04:16:00,
2013-05-16 23:18:00,72.5,45.4,29.88,ESE,115,17.0,21.0,38,0.00,,,0.00,Wunderground v.1.15,2013-05-17 04:18:00,
2013-05-16 23:20:00,72.4,45.4,29.88,East,96,18.0,18.0,38,0.00,,,0.00,Wunderground v.1.15,2013-05-17 04:20:00,
2013-05-16 23:22:00,72.2,45.9,29.88,East,101,18.0,24.0,39,0.00,,,0.00,Wunderground v.1.15,2013-05-17 04:22:00,
2013-05-16 23:26:00,71.9,45.6,29.88,ESE,112,18.0,24.0,39,0.00,,,0.00,Wunderground v.1.15,2013-05-17 04:26:00,
2013-05-16 23:28:00,71.8,45.5,29.88,East,101,19.0,24.0,39,0.00,,,0.00,Wunderground v.1.15,2013-05-17 04:28:00,
2013-05-16 23:30:00,71.6,45.3,29.88,East,89,19.0,19.0,39,0.00,,,0.00,Wunderground v.1.15,2013-05-17 04:30:00,
2013-05-16 23:34:00,71.3,45.7,29.88,ESE,114,18.0,19.0,40,0.00,,,0.00,Wunderground v.1.15,2013-05-17 04:34:00,
2013-05-16 23:38:00,71.0,46.1,29.89,East,98,17.0,19.0,41,0.00,,,0.00,Wunderground v.1.15,2013-05-17 04:38:00,
2013-05-16 23:40:00,70.9,46.0,29.89,ESE,108,17.0,17.0,41,0.00,,,0.00,Wunderground v.1.15,2013-05-17 04:40:00,
2013-05-16 23:42:00,70.7,45.8,29.89,East,100,16.0,20.0,41,0.00,,,0.00,Wunderground v.1.15,2013-05-17 04:42:00,
2013-05-16 23:46:00,70.4,46.2,29.89,East,96,17.0,20.0,42,0.00,,,0.00,Wunderground v.1.15,2013-05-17 04:46:00,
2013-05-16 23:48:00,70.2,46.6,29.89,East,101,17.0,20.0,43,0.00,,,0.00,Wunderground v.1.15,2013-05-17 04:48:00,
2013-05-16 23:50:00,70.1,46.6,29.88,East,89,17.0,17.0,43,0.00,,,0.00,Wunderground v.1.15,2013-05-17 04:50:00,
2013-05-16 23:52:00,69.9,47.0,29.89,East,100,17.0,17.0,44,0.00,,,0.00,Wunderground v.1.15,2013-05-17 04:52:00,
2013-05-16 23:54:00,69.6,47.3,29.89,East,89,17.0,17.0,45,0.00,,,0.00,Wunderground v.1.15,2013-05-17 04:54:00,
2013-05-16 23:58:00,68.7,48.2,29.89,East,93,16.0,17.0,48,0.00,,,0.00,Wunderground v.1.15,2013-05-17 04:58:00,